Flag for Canada Weather past 2 weeks in Shawinigan, Quebec, Canada

Now
71 °F

Mild.


Feels Like: 73 °F
Forecast: 55 / 80 °F
Wind: 9 mph from Southwest

Location: Shawinigan CS

Current Time: May 30, 2015 at 10:50:00 AM

Latest Report: May 30, 2015 at 10:00 AM


Visibility: N/A

Pressure: 29.89 "Hg

Humidity: 75%

Dew point: 63 °F

Location of ShawiniganLocation

Historic Weather in Shawinigan — Graph

°F

Shawinigan temperature yesterday

Maximum temperature yesterday: 72 °F (at 4:00 PM)
Minimum temperature yesterday: 46 °F (at 5:00 AM)
Average temperature yesterday: 60 °F

Past Weeks' High & Low Weather Summary

 TemperatureHumidityPressure
High82 °F (May 26, 6:00 PM)98% (May 26, 7:00 AM)30.33 "Hg (May 26, 7:00 AM)
Low34 °F (May 23, 5:00 AM)22% (May 15, 6:00 PM)29.52 "Hg (May 19, 6:00 PM)
Average59 °F65%29.98 "Hg
* Reported May 15 10:00 AM — May 30 10:00 AM, Shawinigan, Weather by CustomWeather, © 2015

Note: Actual official high and low records may vary slightly from our data, if they occured in-between our weather recording intervals... More about our weather records

Advertising

Shawinigan weather history for previous 24 hours

 ConditionsComfort  
Time TempWeatherWind HumidityBarometerVisibility
10:00 AM
Sat, May 30
71 °FMild.9 mph75%29.89 "HgN/A
9:00 AM67 °FMild.8 mph80%29.91 "HgN/A
8:00 AM61 °FCool.3 mph88%29.93 "HgN/A
7:00 AM57 °FCool.1 mph92%29.95 "HgN/A
6:00 AM56 °FCool.1 mph92%29.95 "HgN/A
5:00 AM54 °FCool.1 mph92%29.96 "HgN/A
4:00 AM54 °FCool.1 mph93%29.98 "HgN/A
3:00 AM54 °FCool.1 mph93%30.01 "HgN/A
2:00 AM54 °FCool.1 mph92%30.03 "HgN/A
1:00 AM55 °FCool.2 mph91%30.04 "HgN/A
12:00 AM56 °FCool.1 mph87%30.06 "HgN/A
11:00 PM
Fri, May 29
59 °FCool.1 mph82%30.08 "HgN/A
10:00 PM63 °FMild.1 mph72%30.10 "HgN/A
9:00 PM65 °FMild.2 mph63%30.10 "HgN/A
8:00 PM68 °FMild.2 mph58%30.11 "HgN/A
7:00 PM69 °FMild.2 mph56%30.13 "HgN/A
6:00 PM72 °FMild.5 mph49%30.15 "HgN/A
5:00 PM71 °FMild.7 mph52%30.18 "HgN/A
4:00 PM72 °FMild.7 mph45%30.20 "HgN/A
3:00 PM72 °FMild.7 mph48%30.22 "HgN/A
2:00 PM70 °FMild.8 mph57%30.24 "HgN/A
1:00 PM69 °FMild.7 mph47%30.26 "HgN/A
12:00 PM68 °FMild.5 mph45%30.27 "HgN/A
11:00 AM65 °FMild.6 mph44%30.29 "HgN/A
10:00 AM62 °FCool.2 mph61%30.31 "HgN/A
Weather by CustomWeather, © 2015

See weather overviewHow to use our weather pages